Погода в Коситчине

Россия / Смоленская область     54°21′05″N   33°06′43″E
темп.,
°C
ветер,
м/с
пор.,
м/с
влажн.,
%
обл.,
%
осадки,
мм/ч
давл.,
гПа
погр.,
м
10 августа, ср
ср1000:00+14ссв247531 0.0 102376
03:00+14ссв3779100 0.0 1022144
06:00+15св3877100 0.0 1023237
09:00+16ссв3874100 0.0 1023318
12:00+21ссв56484 0.0 10221873
15:00+21ссв464885 0.0 10221283
18:00+21св47540 0.0 10221161
21:00+15ссв357872 0.0 102382
11 августа, чт
чт1100:00+14св397458 0.0 1023198
03:00+13св398311 0.0 1023197
06:00+13св3118422 0.0 1024236
09:00+18всв510626 0.0 1024568
12:00+22всв68525 0.0 10231146
15:00+24в56496 0.0 10231340
18:00+23в46592 0.0 10221004
21:00+17всв38771 0.0 1023155
12 августа, пт
пт1200:00+15всв37781 0.0 1024110
03:00+14св37812 0.0 1024118
06:00+14всв37820 0.0 1024132
09:00+20всв46610 0.0 1024358
12:00+25в34490 0.0 1024902
15:00+27всв33440 0.0 10231257
18:00+26всв245514 0.0 1023337
21:00+19всв22804 0.0 102322
13 августа, сб
сб1300:00+17св358371 0.0 102384
03:00+16всв368542 0.0 102396
06:00+16всв3785100 0.0 1023124
09:00+21в3667100 0.0 1023294
12:00+25в4555100 0.0 1022761
15:00+27в3449100 0.0 10211286
18:00+24вюв3766100 0.0 1021367
21:00+20всв358299 0.1 102180
14 августа, вс
вс1400:00+18в358850 0.0 102188
03:00+17в388751 0.0 1020137
06:00+17в398287 0.0 1020160
09:00+21в4965100 0.0 1020324
12:00+24в575489 0.0 1019416
15:00+24в475694 0.0 1018424
18:00+24в4960100 0.0 1018393
21:00+20всв367892 0.0 1018124